Parsons, KS

7:26 PM CDT on April 24, 2017 (GMT -0500)
Tri-City

Weather History for KPPF - October, 2012

Change the Weather History Date:

Tuesday, October 16, 2012

  Actual Average Record
Temperature  
Mean Temperature 68 °F -  
Max Temperature 81 °F 70 °F 88 °F (1950)
Min Temperature 55 °F 47 °F 30 °F (2001)
Cooling Degree Days 2    
Growing Degree Days 18 (Base 50)    
Moisture  
Dew Point 50 °F    
Average Humidity 54    
Maximum Humidity 77    
Minimum Humidity 32    
Precipitation  
Precipitation 0.00 in - - ()
Sea Level Pressure  
Sea Level Pressure 29.70 in    
Wind  
Wind Speed 8 mph (South)    
Max Wind Speed 17 mph    
Max Gust Speed 25 mph    
Visibility 10 miles    
Events      
Averages and records for this station are not official NWS values.
T = Trace of Precipitation, MM = Missing Value Source: NWS Daily Summary

Daily Weather History Graph

Daily Weather History Graph

Search for Another Location

Airport or City:

Trip Planner

Search our weather history database for the weather conditions in past years. The results will help you decide how hot, cold, wet, or windy it might be!

Date:

Astronomy

Oct. 16, 2012 Rise Set
Actual Time 7:31 AM CDT 6:42 PM CDT
Civil Twilight 7:05 AM CDT 7:09 PM CDT
Nautical Twilight 6:34 AM CDT 7:39 PM CDT
Astronomical Twilight 6:04 AM CDT 8:09 PM CDT
Moon 8:52 AM CDT (10/16) 7:31 PM CDT (10/16)
Length of Visible Light 12h 04m
Length of Day
11h 11m
New Moon, 2% of the Moon is Illuminated
Oct 16
New Moon
Oct 21
First Quarter
Oct 29
Full
Nov 6
Last Quarter
Nov 13
New

Hourly Weather History & Observations

Time (CDT) Temp. Dew Point Humidity Pressure Visibility Wind Dir Wind Speed Gust Speed Precip Events Conditions
12:52 AM 62.1 °F 51.1 °F 67% 29.85 in 10.0 mi South 3.5 mph - N/A   Clear
1:52 AM 61.0 °F 50.0 °F 67% 29.84 in 10.0 mi South 3.5 mph - N/A   Clear
2:52 AM 60.1 °F 50.0 °F 69% 29.81 in 10.0 mi South 6.9 mph - N/A   Clear
3:52 AM 59.0 °F 50.0 °F 72% 29.80 in 10.0 mi South 5.8 mph - N/A   Clear
4:52 AM 57.9 °F 50.0 °F 75% 29.80 in 10.0 mi South 5.8 mph - N/A   Clear
5:52 AM 57.9 °F 50.0 °F 75% 29.80 in 10.0 mi South 4.6 mph - N/A   Clear
7:52 AM 55.9 °F 48.9 °F 77% 29.80 in 10.0 mi South 5.8 mph - N/A   Clear
9:52 AM 68.0 °F 50.0 °F 52% 29.79 in 10.0 mi SSW 11.5 mph 19.6 mph N/A   Clear
10:52 AM 72.0 °F 50.0 °F 46% 29.77 in 10.0 mi SSW 15.0 mph 21.9 mph N/A   Clear
11:52 AM 75.9 °F 50.0 °F 40% 29.76 in 10.0 mi South 16.1 mph 25.3 mph N/A   Clear
1:52 PM 80.1 °F 48.9 °F 34% 29.68 in 10.0 mi South 17.3 mph 24.2 mph N/A   Clear
2:52 PM 80.1 °F 48.9 °F 34% 29.64 in 10.0 mi South 15.0 mph 24.2 mph N/A   Clear
3:52 PM 80.1 °F 48.0 °F 32% 29.60 in 10.0 mi South 12.7 mph 23.0 mph N/A   Clear
4:52 PM 79.0 °F 48.0 °F 34% 29.60 in 10.0 mi South 10.4 mph 23.0 mph N/A   Clear
5:52 PM 75.9 °F 48.9 °F 38% 29.59 in 10.0 mi South 9.2 mph 17.3 mph N/A   Clear
6:52 PM 72.0 °F 48.9 °F 44% 29.60 in 10.0 mi South 5.8 mph - N/A   Clear
7:52 PM 70.0 °F 48.0 °F 46% 29.60 in 10.0 mi South 6.9 mph - N/A   Clear
8:52 PM 66.9 °F 48.0 °F 51% 29.59 in 10.0 mi South 6.9 mph - N/A   Clear
9:52 PM 66.9 °F 50.0 °F 54% 29.59 in 10.0 mi South 10.4 mph - N/A   Clear
10:52 PM 66.0 °F 51.1 °F 59% 29.57 in 10.0 mi South 11.5 mph 18.4 mph N/A   Clear
11:52 PM 64.9 °F 52.0 °F 63% 29.56 in 10.0 mi South 10.4 mph 18.4 mph N/A   Clear